Temperature
20 20 19 19 19 19 19 19 18 18 18 18 18 18 18 18 17 17 17 17 17 17 17 17 17 17 16 16 16 16 16 16 16 16 16 16 16 16 16 16 16 16 16
20 20 19 19 19 19 19 18 18 18 18 18 18 18 17 17 17 17 17 17 17 17 16 16 16 16 16 16 16 16 16 16 15 15 16 16 16 16 16 16 16 16 15
20 20 19 19 19 19 18 18 18 18 17 17 17 17 17 17 17 17 16 16 16 16 16 16 16 16 16 16 16 16 15 15 15 15 15 16 16 16 16 16 16 15 15
20 19 19 19 19 18 18 18 18 17 17 17 17 17 17 16 16 16 16 16 16 16 16 16 15 15 15 15 15 15 15 15 15 15 15 15 15 15 15 15 15 15 15
19 19 19 19 18 18 18 18 18 17 17 17 17 16 16 16 16 16 15 15 15 15 15 15 15 15 15 15 15 15 15 15 15 15 15 15 15 15 15 15 14 15 15
19 19 18 18 18 18 18 18 17 17 17 17 16 16 16 16 15 15 15 15 15 15 15 15 15 15 14 14 14 14 14 14 14 14 14 14 14 14 14 14 14 14 14
19 19 18 18 18 18 17 17 17 17 17 16 16 16 16 15 15 15 15 15 15 14 14 14 14 14 14 14 14 14 14 14 14 13 13 13 14 14 14 14 13 13 13
19 19 18 18 18 17 17 17 17 16 16 16 16 15 15 15 15 15 15 14 14 14 14 14 14 14 14 13 13 13 13 13 13 13 13 13 13 13 13 13 13 13 13
18 18 18 18 17 17 17 16 16 16 16 15 15 15 15 14 14 14 14 14 14 14 13 13 13 13 13 13 13 13 13 13 13 13 13 13 13 13 13 13 13 13 13
18 18 17 17 17 17 16 16 16 15 15 15 14 14 14 14 14 14 14 13 13 13 13 13 13 13 13 12 12 12 12 12 12 12 12 12 12 13 13 12 12 12 12
18 17 17 17 17 16 16 16 15 15 15 14 14 14 14 13 13 13 13 13 13 13 13 12 12 12 12 12 12 12 12 12 12 12 12 12 12 12 12 12 12 12 12
17 17 17 16 16 16 15 15 15 14 14 14 14 14 13 13 13 13 13 13 12 12 12 12 12 11 11 11 12 12 12 12 12 12 12 12 12 12 12 12 12 11 11
17 17 16 16 16 15 15 15 14 14 14 14 13 13 13 13 13 13 12 12 12 12 12 11 11 11 11 11 11 11 11 11 11 11 11 11 11 11 11 11 11 11 11
17 16 16 15 15 15 14 14 14 14 14 13 13 13 13 13 12 12 12 12 12 12 11 11 11 11 11 11 11 11 11 11 11 11 11 11 11 11 11 11 11 10 10
16 16 15 15 14 14 14 14 14 13 13 13 13 13 12 12 12 12 12 11 11 11 11 11 11 10 10 10 10 10 10 10 10 10 10 10 10 10 10 10 10 10 10
15 15 15 14 14 14 14 13 13 13 13 13 12 12 12 12 12 11 11 11 11 10 10 10 10 10 10 10 10 10 10 10 10 10 10 10 10 10 10 10 9 9 9
15 14 14 14 14 13 13 13 13 13 12 12 12 12 12 11 11 11 11 11 11 10 10 10 10 10 10 9 9 9 9 9 9 9 9 9 9 9 9 9 9 9 9
14 14 14 13 13 13 13 13 13 12 12 12 12 11 11 11 11 11 11 10 10 10 10 10 9 9 9 9 9 9 9 9 9 9 9 9 9 8 8 8 8 8 8
13 13 13 13 13 13 12 12 12 12 12 11 11 11 11 11 10 10 10 10 10 10 10 9 9 9 9 9 9 9 8 8 8 8 8 8 8 8 8 8 8 8 8
13 13 13 13 12 12 12 12 11 11 11 11 10 10 10 10 10 10 10 10 9 9 9 9 9 9 9 8 8 8 8 8 8 8 8 8 8 8 7 8 7 7 7
12 12 12 12 12 12 11 11 11 11 10 10 10 10 10 10 10 9 9 9 9 9 9 9 9 8 8 8 8 8 8 8 8 7 7 7 7 7 7 7 7 7 7
12 12 11 11 11 11 11 11 10 10 10 10 10 10 9 9 9 9 9 9 9 8 8 8 8 8 8 8 8 7 7 7 7 7 7 7 7 7 7 7 7 7 7
11 11 11 11 11 10 10 10 10 10 10 10 9 9 9 9 9 8 8 8 8 8 8 8 8 8 7 7 7 7 7 7 7 7 7 7 7 7 6 6 6 6 6
11 11 11 10 10 10 10 10 9 9 9 9 9 9 8 8 8 8 8 8 8 8 8 7 7 7 7 7 7 7 7 7 7 7 6 6 6 6 6 6 6 6 6
11 10 10 10 10 10 9 9 9 9 9 9 8 8 8 8 8 8 8 7 7 7 7 7 7 7 7 7 7 6 6 6 6 6 6 6 6 6 6 6 6 6 6
10 10 10 10 10 9 9 9 9 9 8 8 8 8 8 8 8 7 7 7 7 7 7 7 7 7 7 6 6 6 6 6 6 6 6 6 6 6 6 6 6 6 6
Wind_Speed
5 4 4 3 3 3 2 2 2 1 1 1 2 2 1 1 1 1 1 1 1 1 1 0 1 1 1 1 1 1 2 3 4 4 2 3 2 3 3 3 3 3 4
6 5 4 3 3 3 2 2 2 2 1 1 1 1 1 1 1 1 1 1 1 1 1 1 1 1 1 1 1 2 2 2 3 4 3 2 3 3 3 3 3 2 3
5 5 4 3 3 3 3 2 2 2 1 1 1 1 1 1 1 1 1 1 1 1 1 1 2 1 2 2 2 2 2 2 2 3 3 2 2 2 2 2 2 2 3
5 5 4 4 4 3 2 2 2 2 2 1 1 1 1 0 1 1 1 0 1 1 1 2 2 2 3 3 2 2 2 2 2 2 3 3 3 2 2 2 2 2 2
5 5 5 4 3 3 3 2 2 2 2 2 2 1 1 1 1 0 1 1 0 1 1 1 1 1 2 2 2 2 2 2 2 2 3 2 3 2 2 2 3 2 2
6 5 4 4 4 4 3 3 2 2 1 1 1 1 1 0 0 1 2 1 1 1 1 2 3 2 3 2 2 2 2 2 3 2 3 3 4 4 3 2 2 2 2
5 5 4 5 5 4 4 2 2 2 2 2 2 1 1 1 1 1 2 1 1 1 2 2 2 2 2 2 3 3 3 3 4 4 4 5 5 4 3 3 2 2 3
5 5 4 5 5 4 4 4 3 3 2 2 2 2 1 1 1 1 1 1 1 2 2 2 2 3 3 2 2 3 4 4 4 4 4 5 5 5 4 4 3 3 3
5 5 5 5 5 4 5 4 3 3 2 2 2 2 2 2 3 3 3 1 1 2 3 2 2 3 3 2 2 3 4 4 4 3 4 5 5 4 3 2 2 2 3
6 5 5 5 5 5 5 4 3 3 3 2 2 2 2 3 3 3 3 2 1 2 2 2 2 3 3 3 2 2 4 5 4 4 4 4 4 3 2 3 3 3 2
4 4 4 4 4 4 4 3 3 2 2 1 2 2 2 2 2 2 3 2 2 2 2 2 3 3 4 4 3 3 5 5 3 3 3 3 3 2 2 2 2 3 3
4 4 4 3 3 3 4 3 3 3 3 2 1 2 1 1 1 2 3 4 3 2 3 2 3 4 4 4 3 3 4 3 2 2 2 2 3 3 2 2 1 1 2
4 3 3 3 2 3 4 4 3 3 3 2 2 2 2 1 1 2 3 3 2 2 2 3 3 3 3 3 3 4 3 2 1 2 2 3 2 2 2 2 2 1 1
5 4 3 3 2 2 3 3 4 4 3 3 3 3 3 2 2 2 2 1 1 1 1 1 2 2 2 3 3 3 2 2 2 2 2 2 2 1 1 1 1 1 1
3 3 2 2 2 2 2 2 3 4 5 5 5 4 4 4 4 5 3 2 1 1 1 1 1 2 2 3 3 3 2 2 2 2 2 2 1 1 1 1 1 1 1
3 3 3 3 3 3 2 1 1 2 3 4 5 5 4 4 4 4 3 2 2 2 1 1 1 2 2 3 3 3 2 2 2 2 2 1 1 1 1 1 0 0 1
4 4 3 3 4 4 4 3 2 2 1 1 3 4 4 4 4 3 3 1 1 2 1 1 2 2 2 3 3 2 2 2 2 1 1 2 2 2 1 1 1 1 1
3 3 3 3 3 4 4 4 3 3 2 2 2 2 3 3 3 3 3 2 1 0 2 2 2 2 3 3 3 3 3 2 1 1 2 2 2 2 2 2 2 2 2
3 2 2 2 2 2 2 2 2 2 2 1 1 2 1 1 1 1 2 1 2 2 3 3 3 3 3 3 3 3 2 2 2 2 2 2 2 2 3 3 2 3 2
2 3 3 2 2 2 2 2 2 2 1 2 2 2 1 0 0 1 1 2 3 3 3 3 3 3 3 3 3 3 2 3 3 2 2 3 3 3 3 4 3 3 3
2 2 3 2 2 2 2 2 2 2 2 2 2 3 3 2 3 3 3 3 4 4 4 4 3 3 3 3 3 3 4 3 3 3 3 3 3 3 3 4 4 4 3
2 2 2 2 2 2 2 2 3 3 3 3 2 2 3 3 3 3 4 4 4 3 4 3 3 4 4 4 4 4 4 4 4 4 4 4 3 4 4 4 4 3 3
2 2 2 2 2 3 2 2 2 3 3 3 2 2 2 2 3 3 3 4 3 3 3 3 4 4 4 4 4 4 4 4 5 5 4 4 4 4 4 4 5 5 4
2 3 3 3 2 2 2 2 2 3 3 3 3 3 3 3 3 3 3 3 3 3 3 3 4 5 5 4 4 4 5 6 5 5 6 5 5 5 5 5 5 5 5
2 2 2 2 2 2 2 3 3 3 3 3 3 3 3 3 4 4 4 3 4 4 4 4 4 5 5 5 5 5 6 6 6 6 5 5 5 6 5 6 5 5 4
2 2 2 2 2 3 3 3 3 3 3 4 4 4 4 4 4 4 4 4 4 4 5 4 5 6 6 5 6 6 6 6 6 6 5 4 5 5 5 5 6 5 5
Wind_Direction
179 182 182 189 191 182 182 195 199 209 219 231 232 224 231 239 222 192 211 182 186 287 326 282 284 292 293 303 277 254 237 222 245 270 260 275 276 281 296 287 283 279 273
189 182 184 188 178 176 190 205 201 197 201 211 213 213 231 232 212 192 217 200 193 235 270 292 294 283 285 281 268 267 260 239 240 269 289 295 281 288 290 290 299 296 286
183 177 174 178 187 195 205 202 187 181 172 151 132 149 216 210 198 202 209 217 212 228 245 252 269 271 281 276 264 265 270 268 242 251 282 293 292 309 307 304 304 304 302
169 172 178 189 199 200 196 191 187 179 170 183 179 170 152 183 205 199 193 193 255 284 274 255 258 249 260 266 264 262 261 268 260 259 271 285 286 297 298 289 301 302 308
168 177 194 195 185 183 186 190 187 181 184 181 164 172 168 163 203 164 172 175 231 313 324 308 294 289 281 266 276 267 260 258 269 268 271 279 286 288 279 275 280 297 301
175 184 185 175 175 191 197 188 181 182 157 143 168 200 199 233 239 179 174 182 206 255 301 310 308 319 317 315 301 287 257 253 259 257 262 266 272 271 276 277 284 303 298
177 180 180 176 184 196 196 179 186 188 168 176 199 197 216 234 201 197 195 173 212 253 272 291 302 313 325 322 329 327 312 280 240 237 254 261 263 261 263 266 248 246 262
176 183 185 179 186 188 182 187 193 188 182 199 213 215 227 270 266 235 209 189 232 257 261 262 269 287 295 306 315 319 307 296 270 249 253 265 268 261 241 245 251 253 272
184 190 192 187 188 187 190 198 195 186 190 211 222 211 213 256 247 223 182 194 235 270 276 275 263 274 288 291 291 298 306 305 302 288 274 276 280 282 257 237 241 249 279
197 195 189 186 186 191 194 191 194 186 193 198 226 234 231 253 252 227 189 185 225 276 293 293 278 274 292 297 270 268 283 295 309 319 322 321 313 315 276 230 224 225 247
183 176 177 180 182 184 184 176 171 176 169 190 229 258 252 258 262 236 201 200 213 243 273 287 293 293 296 297 274 255 261 279 298 306 312 319 324 324 318 286 242 221 223
160 167 174 172 171 166 159 161 161 164 175 201 224 263 280 280 271 257 232 225 217 218 246 270 285 294 297 298 294 283 284 288 288 299 306 310 313 314 315 316 302 265 235
159 166 173 171 174 171 169 175 176 179 189 200 209 232 262 275 280 274 241 232 224 222 246 260 276 289 302 306 303 299 300 291 269 267 276 284 285 291 312 331 354 8 8
167 169 170 178 190 183 175 179 179 190 196 202 213 224 240 252 259 253 243 244 254 269 280 297 307 313 309 297 305 308 295 276 260 257 267 277 291 309 326 332 328 346 359
165 163 177 182 177 174 167 195 202 209 207 204 214 211 213 236 246 224 212 223 229 231 253 326 333 325 324 321 316 308 302 292 271 263 262 275 290 316 327 332 336 350 327
170 181 194 194 189 183 176 189 325 232 225 216 209 207 220 222 214 210 217 221 227 199 157 238 271 279 282 291 297 307 312 304 287 273 263 260 269 278 291 308 311 292 292
188 199 203 198 192 193 195 194 230 332 17 254 223 209 207 208 204 200 196 185 170 155 179 240 257 263 269 275 279 281 286 294 296 290 276 268 266 272 276 278 274 264 272
193 206 202 211 208 204 207 209 204 209 243 312 305 245 220 204 202 199 182 125 74 176 238 244 259 265 265 270 273 275 279 286 293 288 277 272 270 271 276 275 264 259 263
185 196 194 196 199 206 207 206 207 207 208 242 295 300 263 183 165 212 183 179 218 243 247 247 252 258 262 266 269 265 262 265 270 266 266 267 267 271 271 266 261 256 255
186 191 177 168 167 177 178 188 198 192 200 208 230 255 261 109 212 258 240 230 228 238 243 247 249 251 253 257 261 260 257 260 265 267 271 272 268 261 261 264 261 256 255
182 182 170 162 171 185 189 195 196 193 204 220 239 242 208 214 223 235 245 244 242 243 244 246 247 250 252 254 254 253 253 259 259 258 262 268 270 270 271 269 266 256 255
172 176 181 188 188 197 202 201 206 215 221 223 244 255 223 230 238 245 249 252 250 249 249 247 252 256 256 253 249 245 248 254 259 258 261 264 264 265 266 267 270 268 264
166 173 184 200 204 206 207 211 214 226 233 234 239 243 235 236 242 248 253 257 254 253 252 248 255 261 260 257 249 242 244 251 253 253 253 257 258 258 260 262 262 265 265
181 191 201 210 209 204 209 217 226 233 233 233 237 238 237 238 245 250 252 255 252 253 250 249 254 259 261 260 253 246 245 249 252 250 247 250 254 255 256 259 259 258 252
196 196 201 205 209 217 222 226 229 231 232 234 237 240 244 245 247 250 251 253 256 258 258 254 252 255 255 255 254 255 255 252 252 255 249 245 247 248 251 254 254 256 250
211 210 214 215 216 218 219 227 233 237 238 238 238 244 247 248 250 252 253 255 258 262 265 263 259 258 257 255 260 261 256 255 261 261 248 242 245 248 251 252 251 248 249
Height
1523 1525 1527 1529 1530 1530 1530 1530 1531 1531 1532 1532 1532 1532 1532 1532 1532 1531 1531 1531 1531 1531 1531 1531 1530 1530 1530 1530 1529 1529 1528 1528 1527 1526 1526 1525 1524 1524 1523 1522 1521 1520 1519
1521 1523 1525 1526 1527 1528 1528 1528 1529 1529 1529 1529 1529 1529 1529 1529 1529 1529 1528 1528 1528 1528 1528 1528 1527 1528 1527 1527 1526 1526 1525 1525 1524 1523 1522 1522 1521 1520 1520 1519 1518 1517 1516
1518 1520 1522 1524 1525 1525 1526 1526 1527 1527 1527 1527 1527 1527 1527 1527 1526 1526 1526 1526 1526 1526 1526 1525 1525 1525 1524 1524 1524 1523 1522 1522 1521 1520 1519 1519 1518 1517 1516 1515 1515 1514 1513
1516 1518 1519 1520 1522 1523 1524 1524 1525 1525 1525 1525 1525 1524 1524 1524 1524 1524 1524 1524 1524 1523 1523 1523 1522 1522 1521 1521 1521 1520 1519 1519 1518 1517 1516 1515 1515 1514 1513 1512 1511 1511 1510
1513 1515 1516 1518 1519 1521 1521 1522 1522 1523 1523 1523 1523 1522 1522 1521 1521 1521 1521 1521 1521 1521 1520 1520 1519 1519 1518 1518 1517 1517 1516 1515 1514 1513 1512 1512 1511 1510 1510 1508 1508 1507 1506
1511 1512 1514 1515 1516 1517 1518 1519 1519 1519 1520 1520 1520 1520 1520 1519 1519 1519 1518 1518 1518 1518 1517 1517 1516 1516 1516 1515 1514 1513 1513 1512 1511 1510 1509 1508 1507 1507 1506 1505 1505 1504 1503
1508 1509 1511 1512 1513 1514 1515 1516 1516 1516 1517 1517 1517 1517 1517 1517 1517 1516 1516 1515 1515 1514 1514 1513 1513 1512 1512 1511 1511 1510 1509 1508 1508 1507 1505 1505 1504 1503 1503 1502 1501 1500 1500
1505 1506 1508 1508 1509 1511 1511 1512 1512 1513 1513 1514 1514 1514 1515 1514 1514 1513 1513 1512 1512 1511 1511 1510 1509 1509 1509 1508 1507 1506 1506 1505 1504 1503 1502 1501 1501 1500 1499 1499 1498 1497 1496
1502 1503 1504 1506 1507 1507 1508 1509 1509 1510 1510 1510 1511 1511 1511 1511 1511 1510 1510 1509 1509 1508 1507 1507 1506 1506 1505 1505 1504 1502 1502 1501 1501 1500 1499 1498 1497 1496 1496 1495 1494 1493 1492
1499 1500 1502 1503 1503 1504 1505 1505 1506 1507 1507 1507 1508 1509 1508 1508 1508 1508 1507 1506 1505 1505 1504 1503 1503 1503 1502 1501 1500 1499 1498 1497 1497 1496 1495 1494 1494 1493 1492 1491 1490 1490 1489
1497 1498 1499 1499 1500 1501 1502 1502 1503 1504 1504 1504 1505 1505 1505 1505 1505 1505 1504 1503 1502 1501 1501 1500 1500 1499 1499 1498 1497 1496 1495 1495 1493 1493 1492 1491 1490 1489 1488 1488 1487 1486 1486
1494 1495 1496 1496 1497 1498 1499 1500 1500 1501 1501 1501 1502 1502 1502 1502 1502 1501 1500 1500 1499 1498 1497 1497 1496 1496 1495 1495 1494 1493 1492 1492 1490 1489 1489 1487 1487 1486 1485 1484 1484 1483 1483
1490 1491 1493 1494 1495 1495 1496 1497 1497 1498 1498 1498 1498 1498 1498 1498 1497 1497 1497 1496 1495 1494 1494 1493 1493 1493 1492 1491 1490 1490 1489 1488 1487 1486 1485 1484 1483 1482 1482 1481 1481 1480 1479
1487 1488 1489 1491 1491 1492 1493 1494 1494 1495 1495 1495 1494 1494 1494 1494 1493 1493 1493 1493 1492 1491 1490 1490 1490 1489 1489 1488 1487 1487 1486 1485 1484 1483 1482 1481 1480 1479 1478 1478 1477 1477 1476
1485 1486 1488 1488 1489 1489 1490 1491 1491 1492 1492 1491 1491 1490 1490 1490 1490 1490 1489 1489 1488 1487 1487 1486 1486 1486 1485 1484 1484 1483 1482 1482 1481 1480 1479 1478 1477 1476 1475 1475 1474 1473 1472
1482 1483 1484 1485 1485 1486 1487 1487 1488 1489 1488 1488 1488 1488 1487 1487 1487 1486 1486 1486 1485 1484 1484 1483 1482 1482 1482 1481 1480 1480 1479 1478 1477 1477 1476 1475 1474 1473 1472 1471 1471 1470 1469
1480 1480 1481 1481 1482 1483 1484 1484 1484 1484 1485 1485 1485 1484 1484 1484 1484 1484 1483 1483 1482 1481 1481 1480 1479 1479 1478 1478 1477 1476 1475 1475 1474 1473 1473 1472 1471 1470 1469 1468 1468 1467 1467
1477 1478 1478 1479 1479 1479 1480 1481 1481 1480 1480 1481 1481 1481 1481 1480 1480 1481 1480 1480 1479 1478 1478 1477 1476 1475 1475 1474 1474 1473 1472 1472 1471 1470 1469 1469 1468 1467 1466 1465 1465 1464 1464
1474 1475 1476 1476 1477 1477 1477 1478 1478 1478 1477 1478 1478 1478 1478 1477 1477 1478 1477 1477 1476 1475 1475 1474 1473 1472 1472 1471 1470 1470 1469 1468 1468 1467 1466 1465 1465 1464 1463 1462 1462 1461 1461
1472 1473 1473 1473 1473 1474 1474 1475 1475 1474 1474 1474 1475 1474 1475 1474 1474 1474 1474 1473 1473 1472 1471 1470 1470 1469 1468 1467 1467 1466 1465 1465 1464 1464 1463 1462 1461 1461 1460 1459 1458 1458 1457
1469 1469 1470 1470 1470 1471 1471 1471 1471 1471 1472 1472 1472 1472 1472 1471 1470 1471 1471 1470 1469 1469 1468 1467 1466 1466 1465 1464 1463 1462 1462 1461 1461 1460 1459 1458 1458 1457 1456 1456 1455 1454 1454
1466 1466 1467 1467 1467 1468 1468 1468 1469 1469 1469 1469 1469 1469 1468 1468 1467 1467 1467 1466 1466 1465 1465 1464 1463 1462 1461 1461 1460 1459 1458 1457 1457 1456 1455 1455 1454 1453 1452 1452 1451 1450 1450
1464 1464 1464 1465 1465 1466 1466 1466 1466 1466 1466 1466 1465 1465 1465 1464 1464 1464 1463 1463 1462 1462 1461 1460 1459 1458 1458 1457 1456 1455 1454 1453 1453 1452 1451 1450 1450 1449 1448 1447 1447 1446 1446
1462 1462 1462 1462 1462 1463 1463 1463 1463 1463 1463 1462 1462 1462 1462 1461 1461 1460 1460 1459 1459 1458 1457 1457 1456 1455 1454 1453 1452 1451 1450 1449 1449 1448 1447 1446 1445 1444 1444 1443 1442 1442 1441
1460 1459 1459 1459 1460 1460 1460 1459 1459 1459 1459 1459 1459 1459 1458 1458 1458 1457 1456 1456 1455 1455 1454 1453 1452 1451 1450 1448 1448 1447 1446 1445 1444 1443 1442 1441 1440 1440 1439 1439 1438 1437 1437
1457 1457 1457 1456 1456 1456 1456 1456 1456 1456 1456 1455 1455 1455 1455 1455 1454 1453 1453 1452 1452 1451 1450 1449 1448 1447 1446 1444 1443 1442 1441 1440 1440 1439 1437 1437 1436 1435 1434 1434 1433 1433 1432